TimeCST,TemperatureF,Dew PointF,Humidity,Sea Level PressureIn,VisibilityMPH,Wind Direction,Wind SpeedMPH,Gust SpeedMPH,PrecipitationIn,Events,Conditions,WindDirDegrees,DateUTC
12:53 AM,51.1,46.9,86,30.13,10.0,NNW,4.6,-,N/A,,Clear,330,2012-11-21 06:53:00
1:53 AM,50.0,46.0,86,30.14,10.0,NW,3.5,-,N/A,,Clear,320,2012-11-21 07:53:00
2:53 AM,48.9,46.0,90,30.14,10.0,NW,4.6,-,N/A,,Clear,320,2012-11-21 08:53:00
3:53 AM,46.9,44.1,90,30.14,10.0,NNW,5.8,-,N/A,,Clear,330,2012-11-21 09:53:00
4:53 AM,48.9,45.0,86,30.14,10.0,NNW,4.6,-,N/A,,Clear,330,2012-11-21 10:53:00
5:53 AM,48.0,45.0,89,30.15,8.0,NNW,4.6,-,N/A,,Clear,340,2012-11-21 11:53:00
6:53 AM,48.9,46.0,90,30.18,5.0,NNW,4.6,-,N/A,,Clear,340,2012-11-21 12:53:00
7:53 AM,57.0,48.9,74,30.19,9.0,NNW,6.9,-,N/A,,Clear,340,2012-11-21 13:53:00
8:53 AM,66.0,46.9,50,30.20,10.0,North,4.6,-,N/A,,Clear,350,2012-11-21 14:53:00
9:53 AM,68.0,46.9,47,30.19,10.0,NNW,5.8,-,N/A,,Clear,340,2012-11-21 15:53:00
10:53 AM,71.1,48.0,44,30.17,10.0,NNW,8.1,-,N/A,,Clear,340,2012-11-21 16:53:00
11:53 AM,73.0,48.0,41,30.15,10.0,NNW,4.6,-,N/A,,Clear,340,2012-11-21 17:53:00
12:53 PM,75.0,48.0,38,30.13,10.0,NW,11.5,-,N/A,,Clear,320,2012-11-21 18:53:00
1:53 PM,75.0,48.0,38,30.11,10.0,NNW,9.2,-,N/A,,Partly Cloudy,330,2012-11-21 19:53:00
2:53 PM,75.9,48.0,37,30.11,10.0,NW,13.8,18.4,N/A,,Mostly Cloudy,320,2012-11-21 20:53:00
3:53 PM,73.9,48.0,40,30.11,10.0,North,5.8,-,N/A,,Clear,360,2012-11-21 21:53:00
4:53 PM,68.0,48.9,50,30.12,10.0,North,3.5,-,N/A,,Clear,360,2012-11-21 22:53:00
5:53 PM,63.0,48.9,60,30.14,10.0,Calm,Calm,-,N/A,,Clear,0,2012-11-21 23:53:00
6:53 PM,60.1,48.9,67,30.15,10.0,Calm,Calm,-,N/A,,Clear,0,2012-11-22 00:53:00
7:53 PM,59.0,50.0,72,30.17,10.0,Calm,Calm,-,N/A,,Clear,0,2012-11-22 01:53:00
8:53 PM,57.9,48.9,72,30.18,10.0,NW,3.5,-,N/A,,Clear,320,2012-11-22 02:53:00
9:53 PM,57.0,48.9,74,30.18,10.0,WNW,3.5,-,N/A,,Clear,290,2012-11-22 03:53:00
10:53 PM,55.9,48.9,77,30.18,10.0,Calm,Calm,-,N/A,,Clear,0,2012-11-22 04:53:00
11:53 PM,54.0,48.9,83,30.18,8.0,Calm,Calm,-,N/A,,Clear,0,2012-11-22 05:53:00